Miscellaneous Local Product
Issued by NWS North Platte, NE

Home | Current Version | Previous Version | Graphics & Text | Print | Product List | Glossary On
Versions: 1 2 3 4 5 6 7 8 9 10 11 12 13 14 15 16 17 18 19 20 21 22 23 24 25 26 27 28 29 30 31 32 33 34 35 36 37 38 39 40 41 42 43 44 45 46 47 48 49 50
000
AXUS43 KLBF 261210
MISLBF


WESTERN AND NORTH CENTRAL NEBRASKA HOURLY WEATHER ROUNDUP
NATIONAL WEATHER SERVICE NORTH PLATTE NE
700 AM CDT MON SEP 26 2016

NOTE: "FAIR" INDICATES FEW OR NO CLOUDS BELOW 12,000 FEET WITH NO
SIGNIFICANT WEATHER AND/OR OBSTRUCTIONS TO VISIBILITY.

NOTE: STATIONS NOT REPORTING VARIABLES SUCH AS SKY/WEATHER OR
PRESSURE ARE PROVIDED BY RAWS AND APRS NETWORKS AND ARE NOT UNDER
NATIONAL WEATHER SERVICE QUALITY CONTROL.

...OBSERVATIONS IN AND NEAR THE EASTERN PANHANDLE OF NEBRASKA...

CITY           SKY/WX    TMP DP  RH WIND       PRES   REMARKS
PINE RIDGE     CLEAR     33  29  85 CALM      30.30F
CHADRON        CLEAR     41  35  79 SW3       30.31F
ALLIANCE       CLOUDY    33  30  88 SW5       30.33F WCI  29
SIDNEY         CLEAR     39  34  82 W8        30.37F WCI  33
CRESCENT LAKE    N/A     41  37  84 CALM        N/A
$$

...OBSERVATIONS IN NORTHERN NEBRASKA AND FAR SOUTHERN SOUTH DAKOTA...

CITY           SKY/WX    TMP DP  RH WIND       PRES   REMARKS
WINNER         FAIR      48  35  60 W3        30.24S
VALENTINE      CLEAR     37  31  78 SW7       30.29F WCI  32
THEDFORD       CLEAR     40  33  75 W3        30.32F
AINSWORTH      CLEAR     41  35  79 W5        30.29S
O`NEILL        CLEAR     46  34  64 W12       30.26S
ORD            CLEAR     36  32  85 CALM      30.29S
BROKEN BOW     CLEAR     38  32  79 CALM      30.31F
VALENTINE NWR    N/A     41  32  69 W3          N/A
BUTTE            N/A     43  36  75 SW5         N/A
HALSEY           N/A     41  32  69 CALM        N/A
EWING            N/A     42  36  80 W3          N/A
$$

...OBSERVATIONS IN SOUTHWEST NEBRASKA AND FAR NORTHEAST COLORADO...

CITY           SKY/WX    TMP DP  RH WIND       PRES   REMARKS
WRAY           FAIR      37  32  81 W6        30.38S WCI  33
HOLYOKE        FAIR      37  34  87 W5        30.38S WCI  34
IMPERIAL       CLOUDY    38  33  82 CALM      30.37S
OGALLALA       CLEAR     35  33  93 W5        30.36S WCI  31
NORTH PLATTE   CLEAR     36  31  82 NW3       30.35S
MCCOOK         CLEAR     37  33  85 W8        30.36S WCI  31
LEXINGTON      CLEAR     36  32  84 NW3       30.34S
STAPLETON        N/A     39  30  71 CALM        N/A
GOTHENBURG       N/A     38  31  76 W3          N/A
CALLAWAY         N/A     37  33  86 CALM        N/A
$$

...OBSERVATIONS IN CENTRAL LINCOLN COUNTY AREA...

CITY           SKY/WX    TMP DP  RH WIND       PRES   REMARKS
N.P. AIRPORT   CLEAR     36  31  82 NW3       30.35S
N.P. DOWNTOWN    N/A     37  33  86 CALM        N/A
N.P. SOUTHEAST   N/A     37  32  81 CALM        N/A
N.P. HILLCREST   N/A     38  32  79 CALM        N/A
$$

...SOME OBSERVATIONS FROM AROUND THE REGION...

CITY           SKY/WX    TMP DP  RH WIND       PRES   REMARKS
DENVER         CLEAR     44  30  57 SW6       30.41S
LARAMIE        CLOUDY    33  28  81 SE9       30.46S WCI  25
CHEYENNE       CLOUDY    40  32  73 W9        30.41S WCI  34
SCOTTSBLUFF    CLEAR     38  34  85 N3        30.35F
RAPID CITY     CLEAR     45  33  63 SW3       30.27S
BISMARCK       CLEAR     41  34  76 W8        30.17S
PIERRE         CLEAR     43  35  73 W9        30.20S
SIOUX FALLS    PTCLDY    43  36  76 W6        30.15S
OMAHA          PTCLDY    50  38  63 CALM      30.24R
GRAND ISLAND   CLEAR     42  34  73 W9        30.31S
KANSAS CITY    CLEAR     49  44  83 W8        30.25R
WICHITA        PTCLDY    48  44  86 NW7       30.30R
OKLAHOMA CITY  PTCLDY    60  50  69 NE12      30.24R
DALLAS         CLOUDY    68  58  70 N17G24    30.12R
AMARILLO       CLEAR     46  40  79 NW6       30.38R
DODGE CITY     CLEAR     40  33  76 W3        30.37R
HAYS           CLEAR     41  27  56 NW6       30.34S
GOODLAND       CLOUDY    40  32  73 W3        30.38S
$$




USA.gov is the U.S. government's official web portal to all federal, state and local government web resources and services.